Lake Weatherford Weather Center

Moon Phase Calendar



Lake Weatherford Water Level
Online Cameras

 


      

Current Conditions in Hudson Oaks
9/25/2021 11:05:04 AM

79°F
Feels Like 79
Clear
Humidity
43%
Pressure
30.18"
Wind
2 mph (SE)
Dew Point
55°F
UV Index
4/10 (Moderate)
Visibility
6 mi

Hourly Forecast

Date & Time Sat, Sep 25
11:00 AM
Sat, Sep 25
12:00 PM
Sat, Sep 25
1:00 PM
Sat, Sep 25
2:00 PM
Sat, Sep 25
3:00 PM
Sat, Sep 25
4:00 PM
Sat, Sep 25
5:00 PM
Sat, Sep 25
6:00 PM
Sat, Sep 25
7:00 PM
Sat, Sep 25
8:00 PM
Sat, Sep 25
9:00 PM
Sat, Sep 25
10:00 PM
Sat, Sep 25
11:00 PM
Sun, Sep 26
12:00 AM
Sun, Sep 26
1:00 AM
Sun, Sep 26
2:00 AM
Sun, Sep 26
3:00 AM
Sun, Sep 26
4:00 AM
Sun, Sep 26
5:00 AM
Sun, Sep 26
6:00 AM
Sun, Sep 26
7:00 AM
Sun, Sep 26
8:00 AM
Sun, Sep 26
9:00 AM
Sun, Sep 26
10:00 AM
Sun, Sep 26
11:00 AM
Sun, Sep 26
12:00 PM
Sun, Sep 26
1:00 PM
Sun, Sep 26
2:00 PM
Sun, Sep 26
3:00 PM
Sun, Sep 26
4:00 PM
Sun, Sep 26
5:00 PM
Sun, Sep 26
6:00 PM
Sun, Sep 26
7:00 PM
Sun, Sep 26
8:00 PM
Sun, Sep 26
9:00 PM
Sun, Sep 26
10:00 PM
Sun, Sep 26
11:00 PM
Mon, Sep 27
12:00 AM
Mon, Sep 27
1:00 AM
Mon, Sep 27
2:00 AM
Mon, Sep 27
3:00 AM
Mon, Sep 27
4:00 AM
Mon, Sep 27
5:00 AM
Mon, Sep 27
6:00 AM
Mon, Sep 27
7:00 AM
Mon, Sep 27
8:00 AM
Mon, Sep 27
9:00 AM
Mon, Sep 27
10:00 AM
Condition
Clear

Clear

Clear

Clear

Clear

Clear

Clear

Clear

Clear

Clouds

Clouds

Clouds

Clouds

Clouds

Clouds

Clouds

Clouds

Clouds

Clouds

Clouds

Clouds

Clouds

Clouds

Clouds

Clouds

Clouds

Clouds

Clouds

Clouds

Clouds

Clouds

Clouds

Clouds

Clouds

Clouds

Clouds

Clouds

Clouds

Clouds

Clouds

Clouds

Clouds

Clouds

Clouds

Clouds

Clouds

Clouds

Clouds
Temperature 79°F80°F81°F83°F86°F89°F89°F88°F82°F77°F75°F74°F73°F72°F71°F71°F69°F68°F67°F66°F66°F66°F72°F77°F82°F86°F88°F90°F91°F91°F90°F88°F83°F78°F76°F74°F72°F71°F70°F68°F68°F67°F66°F65°F64°F65°F70°F75°F
Feels Like 79°F80°F80°F82°F83°F86°F86°F85°F80°F76°F74°F73°F71°F70°F70°F69°F68°F67°F66°F65°F64°F65°F70°F76°F81°F83°F85°F87°F87°F87°F87°F85°F81°F77°F74°F72°F71°F69°F68°F67°F67°F66°F65°F64°F64°F65°F70°F75°F
Cloudiness 3%3%5%5%4%3%3%4%4%95%92%93%95%96%96%100%100%100%98%86%85%28%22%26%24%24%24%30%49%66%75%70%68%90%76%57%57%63%67%68%75%79%66%57%55%66%68%79%
Visibility 6 mi6 mi6 mi6 mi6 mi6 mi6 mi6 mi6 mi6 mi6 mi6 mi6 mi6 mi6 mi6 mi6 mi6 mi6 mi6 mi6 mi6 mi6 mi6 mi6 mi6 mi6 mi6 mi6 mi6 mi6 mi6 mi6 mi6 mi6 mi6 mi6 mi6 mi6 mi6 mi6 mi6 mi6 mi6 mi6 mi6 mi6 mi6 mi
Precipitation 0%0%0%0%0%0%0%0%0%0%0%0%0%0%0%0%0%0%0%0%0%0%0%0%0%0%0%0%0%0%0%0%0%0%0%0%0%0%0%0%0%0%0%0%0%0%0%0%
Humidity 43%40%36%31%26%20%20%22%28%31%33%35%40%42%43%44%45%47%47%48%47%48%41%34%30%28%25%23%22%21%21%23%27%31%32%33%34%37%39%44%53%62%70%74%77%76%66%57%
Dew Point 55°F53°F52°F50°F47°F43°F43°F44°F45°F44°F44°F45°F46°F47°F47°F47°F47°F47°F47°F46°F45°F46°F46°F47°F48°F48°F48°F48°F47°F46°F45°F46°F46°F44°F43°F43°F43°F43°F44°F46°F50°F53°F56°F56°F56°F57°F58°F59°F
Pressure 30.18"30.18"30.15"30.12"30.06"30"29.97"29.97"29.97"30"30"30.03"30.03"30.03"30.03"30.03"30.03"30"30.03"30.03"30.03"30.06"30.09"30.09"30.06"30.06"30.03"30"29.94"29.94"29.91"29.91"29.91"29.94"29.94"29.97"29.97"29.97"29.97"29.97"29.97"29.97"29.97"29.97"29.97"30"30"30"
Wind Speed 1 mph2 mph3.8 mph4.6 mph5.2 mph5.7 mph5.8 mph7 mph7.2 mph7.5 mph7.4 mph8.5 mph8.6 mph8.6 mph8.1 mph8.3 mph8.5 mph8.1 mph8.9 mph8.5 mph8.3 mph7.9 mph9.2 mph10.2 mph11.6 mph12.2 mph12.8 mph13.5 mph13.9 mph14.2 mph14.4 mph14.4 mph12.3 mph9.8 mph9.1 mph9.2 mph9.2 mph8.8 mph9.7 mph9.8 mph11.2 mph10.4 mph9.6 mph8.7 mph8.6 mph8.9 mph11.7 mph13.2 mph
Wind
Direction
225°
SW
144°
SE
136°
SE
138°
SE
140°
SE
138°
SE
136°
SE
132°
SE
127°
SE
134°
SE
146°
SE
162°
SSE
176°
S
191°
S
199°
SSW
203°
SSW
194°
SSW
202°
SSW
204°
SSW
210°
SSW
217°
SW
217°
SW
219°
SW
209°
SSW
200°
SSW
192°
SSW
185°
S
182°
S
179°
S
176°
S
172°
S
168°
SSE
162°
SSE
165°
SSE
172°
S
186°
S
193°
SSW
176°
S
170°
S
173°
S
177°
S
186°
S
188°
S
190°
S
189°
S
190°
S
195°
SSW
198°
SSW

Daily Forecast

Date High Low Precip. Humidity
Today
Sep 25

Clear
89 °F
62 °F
0%
36%
Sunday
Sep 26

Clouds
91 °F
66 °F
0%
25%
Monday
Sep 27

Clouds
90 °F
64 °F
0%
35%
Tuesday
Sep 28

Rain
94 °F
70 °F
69%
36%
Wednesday
Sep 29

Rain
91 °F
69 °F
100%
48%
Thursday
Sep 30

Rain
88 °F
71 °F
100%
55%
Friday
Oct 1

Rain
81 °F
70 °F
99%
70%
Saturday
Oct 2

Clouds
86 °F
69 °F
47%
53%
Sunday
Oct 3

Clouds
87 °F
70 °F
8%
48%
Monday
Oct 4

Rain
82 °F
68 °F
100%
71%
Tuesday
Oct 5

Rain
85 °F
67 °F
100%
60%
Wednesday
Oct 6

Clouds
88 °F
73 °F
15%
42%
Thursday
Oct 7

Clouds
87 °F
69 °F
0%
39%
Friday
Oct 8

Clouds
84 °F
68 °F
18%
49%
Saturday
Oct 9

Rain
84 °F
67 °F
98%
49%
Sunday
Oct 10

Rain
80 °F
67 °F
87%
65%

Temperature 8-14 Day Outlook



Precipitation 8-14 Day Outlook




Quick Links
Lake Weatherford News
Lake Weatherford Photos
Lake Weatherford Videos




About Us
Contact Us
Site Map
Search Site
Advertise With Us
   
Weatherford.LakesOnline.com
THE LAKE WEATHERFORD WEBSITE

Copyright 2021, Lakes Online
Privacy    |    Legal